Hourly Data Report for November 07, 2019

MIRAMICHI RCS
NEW BRUNSWICK
Current Station Operator: ECCC - MSC

47°00'34.000" N
65°27'54.000" W
33.00 m
8100989
71744
ACQ

Download Data

Hourly Data (November 2019)
Hourly Data Report for November 7, 2019
TIME
LST
Temp Definition
°C
Dew Point Definition
°C
Rel Hum Definition
%
Precip. Amount Definition
mm

Wind Dir Definition
10's deg

Wind Spd Definition
km/h
Visibility Definition
km
Stn Press Definition
kPa
Hmdx Definition


Wind Chill Definition


Weather Definition


00:00 -2.5 -8.8 62 0.0 22 11   101.82   -7 LegendNANA
01:00 -3.0 -8.9 64 0.0 22 11   101.86   -7 LegendNANA
02:00 -2.7 -8.7 63 0.0 22 12   101.87   -7 LegendNANA
03:00 -1.6 -7.7 63 0.0 23 15   101.85   -6 LegendNANA
04:00 -1.2 -6.6 67 0.0 23 15   101.80   -6 LegendNANA
05:00 -1.1 -6.2 68 0.0 24 13   101.76   -5 LegendNANA
06:00 -1.3 -6.0 70 0.0 24 11   101.75   -5 LegendNANA
07:00 -0.7 -5.9 68 0.0 24 14   101.74   -5 LegendNANA
08:00 -0.5 -5.6 68 0.0 22 10   101.75   -4 LegendNANA
09:00 0.2 -5.3 67 0.0 22 9   101.77     LegendNANA
10:00 0.7 -4.0 71 0.0 23 16   101.72     LegendNANA
11:00 0.9 -2.5 78 0.0 24 16   101.64     LegendNANA
12:00 0.4 -0.7 92 0.0 21 10   101.56     LegendNANA
13:00 0.3 -0.4 95 0.6 20 8   101.45     LegendNANA
14:00 0.4 -0.2 96 0.6 17 5   101.33     LegendNANA
15:00 0.5 0.0 96 0.3 16 7   101.27     LegendNANA
16:00 0.3 -0.1 97 0.6 17 6   101.23     LegendNANA
17:00 0.3 -0.1 97 0.5 16 5   101.19     LegendNANA
18:00 0.3 -0.2 96 0.2   0   101.14     LegendNANA
19:00 0.3 -0.2 97 0.2   0   101.11     LegendNANA
20:00 0.3 -0.1 97 0.4 35 LegendMM   101.09     LegendNANA
21:00 0.3 -0.3 96 0.5 35 LegendMM   101.09     LegendNANA
22:00 0.2 -0.2 97 0.7 35 LegendMM   101.06     LegendNANA
23:00 0.2 -0.2 97 0.6 2 LegendMM   100.96     LegendNANA

Notes on Data Quality.

Legend

  • E = Estimated
  • M = Missing
  • NA = Not Available*
  • [empty] = Indicates an unobserved value
Date modified: